,,,PA_Meas_PMT16A,,PR_Meas_QMR101_102,,RH_Meas_QMH101,,SR_Meas_QMS101,,TA_Meas_QMH101,,GenWind,,GenWind,
date,time,status,PA,status,PR,status,RH,status,SR,status,TA,status,DirAvg,status,SpdAvg,
2008-11-28, 00:00:05,VALID,1009.41,VALID,0,VALID,95.0398,VALID,0,VALID,23.9668,VALID,52,VALID,0.332422,
2008-11-28, 00:01:05,VALID,1009.4,VALID,0,VALID,95.0321,VALID,0,VALID,24.0058,VALID,52,VALID,0.223828,
2008-11-28, 00:02:04,VALID,1009.37,VALID,0,VALID,95.0474,VALID,0,VALID,23.9863,VALID,52,VALID,0.342187,
2008-11-28, 00:03:04,VALID,1009.39,VALID,0,VALID,95.0779,VALID,0,VALID,23.9863,VALID,52,VALID,0.140234,
2008-11-28, 00:04:04,VALID,1009.37,VALID,0,VALID,95.1008,VALID,0,VALID,23.9863,VALID,52,VALID,0.166406,
2008-11-28, 00:05:04,VALID,1009.37,VALID,0,VALID,95.1008,VALID,0,VALID,23.9863,VALID,52,VALID,0.05625,
2008-11-28, 00:06:04,VALID,1009.35,VALID,0,VALID,95.116,VALID,0,VALID,23.9668,VALID,52,VALID,0.0328125,
2008-11-28, 00:07:04,VALID,1009.33,VALID,0,VALID,95.1236,VALID,0,VALID,23.9863,VALID,52,VALID,0.150391,
2008-11-28, 00:08:04,VALID,1009.32,VALID,0,VALID,95.1694,VALID,0,VALID,24.0076,VALID,52,VALID,0.0839844,
2008-11-28, 00:09:04,VALID,1009.35,VALID,0,VALID,95.1923,VALID,0,VALID,24.0058,VALID,52,VALID,0.164844,
2008-11-28, 00:10:04,VALID,1009.31,VALID,0,VALID,95.1847,VALID,0,VALID,24.0448,VALID,55,VALID,0.366797,
2008-11-28, 00:11:04,VALID,1009.32,VALID,0,VALID,95.1999,VALID,0,VALID,24.0448,VALID,57,VALID,0.312891,
2008-11-28, 00:12:04,VALID,1009.31,VALID,0,VALID,95.2228,VALID,0,VALID,24.0429,VALID,57,VALID,0.402734,
2008-11-28, 00:13:04,VALID,1009.31,VALID,0,VALID,95.238,VALID,0,VALID,24.0643,VALID,59,VALID,0.371484,
2008-11-28, 00:14:04,VALID,1009.34,VALID,0,VALID,95.2533,VALID,0,VALID,24.0837,VALID,59,VALID,0.248437,
2008-11-28, 00:15:04,VALID,1009.35,VALID,0,VALID,95.2609,VALID,0,VALID,24.0837,VALID,59,VALID,0.203906,
2008-11-28, 00:16:04,VALID,1009.38,VALID,0,VALID,95.2685,VALID,0,VALID,24.0643,VALID,59,VALID,0.179297,
2008-11-28, 00:17:04,VALID,1009.37,VALID,0,VALID,95.2533,VALID,0,VALID,24.0837,VALID,59,VALID,0.153906,
2008-11-28, 00:18:04,VALID,1009.36,VALID,0,VALID,95.2609,VALID,0,VALID,24.0643,VALID,59,VALID,0.144531,
2008-11-28, 00:19:04,VALID,1009.36,VALID,0,VALID,95.2609,VALID,0,VALID,24.0448,VALID,59,VALID,0.140625,
2008-11-28, 00:20:04,VALID,1009.38,VALID,0,VALID,95.2533,VALID,0,VALID,24.0643,VALID,59,VALID,0.00898437,
2008-11-28, 00:21:04,VALID,1009.36,VALID,0,VALID,95.2685,VALID,0,VALID,24.0448,VALID,59,VALID,0.0441406,
2008-11-28, 00:22:04,VALID,1009.36,VALID,0,VALID,95.2609,VALID,0,VALID,24.0643,VALID,59,VALID,0.053125,
2008-11-28, 00:23:04,VALID,1009.37,VALID,0,VALID,95.2685,VALID,0,VALID,24.0448,VALID,59,VALID,0.100781,
2008-11-28, 00:24:04,VALID,1009.39,VALID,0,VALID,95.2762,VALID,0,VALID,24.0448,VALID,59,VALID,0.180469,
2008-11-28, 00:25:04,VALID,1009.36,VALID,0,VALID,95.2685,VALID,0,VALID,24.0253,VALID,59,VALID,0.0335938,
2008-11-28, 00:26:04,VALID,1009.35,VALID,0,VALID,95.2457,VALID,0,VALID,24.0253,VALID,59,VALID,0.214844,
2008-11-28, 00:27:04,VALID,1009.34,VALID,0,VALID,95.2609,VALID,0,VALID,24.0058,VALID,59,VALID,0.330859,
2008-11-28, 00:28:04,VALID,1009.34,VALID,0,VALID,95.2533,VALID,0,VALID,23.9863,VALID,59,VALID,0.336328,
2008-11-28, 00:29:04,VALID,1009.36,VALID,0,VALID,95.2685,VALID,0,VALID,23.9845,VALID,57,VALID,0.452344,
2008-11-28, 00:30:04,VALID,1009.35,VALID,0,VALID,95.2457,VALID,0,VALID,23.9668,VALID,54,VALID,0.442578,
2008-11-28, 00:31:04,VALID,1009.35,VALID,0,VALID,95.2304,VALID,0,VALID,23.9473,VALID,53,VALID,0.245312,
2008-11-28, 00:32:04,VALID,1009.34,VALID,0,VALID,95.2304,VALID,0.105969,VALID,23.9455,VALID,53,VALID,0.175,
2008-11-28, 00:33:04,VALID,1009.33,VALID,0,VALID,95.2457,VALID,0.105969,VALID,23.9455,VALID,53,VALID,0.053125,
2008-11-28, 00:34:04,VALID,1009.3,VALID,0,VALID,95.2304,VALID,0.105969,VALID,23.926,VALID,53,VALID,0.00273437,
2008-11-28, 00:35:04,VALID,1009.28,VALID,0,VALID,95.2609,VALID,0,VALID,23.9065,VALID,53,VALID,0.135937,
2008-11-28, 00:36:04,VALID,1009.27,VALID,0,VALID,95.2457,VALID,0,VALID,23.8676,VALID,53,VALID,0.102344,
2008-11-28, 00:37:04,VALID,1009.26,VALID,0,VALID,95.2533,VALID,0,VALID,23.8889,VALID,53,VALID,0.289063,
2008-11-28, 00:38:04,VALID,1009.25,VALID,0,VALID,95.2304,VALID,0.105969,VALID,23.8676,VALID,53,VALID,0.269141,
2008-11-28, 00:39:04,VALID,1009.23,VALID,0,VALID,95.2533,VALID,0,VALID,23.8694,VALID,53,VALID,0.0988281,
2008-11-28, 00:40:04,VALID,1009.24,VALID,0,VALID,95.2609,VALID,0.105969,VALID,23.8286,VALID,53,VALID,0.129688,
2008-11-28, 00:41:04,VALID,1009.24,VALID,0,VALID,95.2762,VALID,0.105969,VALID,23.8871,VALID,54,VALID,0.366406,
2008-11-28, 00:42:04,VALID,1009.22,VALID,0,VALID,95.2914,VALID,0,VALID,23.9084,VALID,55,VALID,0.414844,
2008-11-28, 00:43:04,VALID,1009.18,VALID,0,VALID,95.299,VALID,0.105969,VALID,23.9065,VALID,62,VALID,0.329688,
2008-11-28, 00:44:04,VALID,1009.18,VALID,0,VALID,95.3067,VALID,0.105969,VALID,23.926,VALID,62,VALID,0.320313,
2008-11-28, 00:45:04,VALID,1009.15,VALID,0,VALID,95.3067,VALID,0.105969,VALID,23.8871,VALID,62,VALID,0.200781,
2008-11-28, 00:46:04,VALID,1009.14,VALID,0,VALID,95.3067,VALID,0,VALID,23.8871,VALID,62,VALID,0.257031,
2008-11-28, 00:47:04,VALID,1009.11,VALID,0,VALID,95.3295,VALID,0.105969,VALID,23.8676,VALID,62,VALID,0.059375,
2008-11-28, 00:48:04,VALID,1009.08,VALID,0,VALID,95.3295,VALID,0.105969,VALID,23.8676,VALID,62,VALID,0.124219,
2008-11-28, 00:49:04,VALID,1009.07,VALID,0,VALID,95.3372,VALID,0.105969,VALID,23.8676,VALID,62,VALID,0.236328,
2008-11-28, 00:50:04,VALID,1009.08,VALID,0,VALID,95.36,VALID,0.105969,VALID,23.8481,VALID,62,VALID,0.175781,
2008-11-28, 00:51:04,VALID,1009.04,VALID,0,VALID,95.3448,VALID,0.105969,VALID,23.8481,VALID,69,VALID,0.206641,
2008-11-28, 00:52:04,VALID,1009.03,VALID,0,VALID,95.3905,VALID,0.105969,VALID,23.8676,VALID,57,VALID,0.443359,
2008-11-28, 00:53:04,VALID,1009.01,VALID,0,VALID,95.3753,VALID,0.105969,VALID,23.8676,VALID,57,VALID,0.289844,
2008-11-28, 00:54:04,VALID,1009.02,VALID,0,VALID,95.3753,VALID,0.105969,VALID,23.8481,VALID,61,VALID,0.491797,
2008-11-28, 00:55:04,VALID,1009.03,VALID,0,VALID,95.3753,VALID,0.105969,VALID,23.8091,VALID,62,VALID,0.295312,
2008-11-28, 00:56:04,VALID,1009,VALID,0,VALID,95.3982,VALID,0.105969,VALID,23.8091,VALID,42,VALID,0.485547,
2008-11-28, 00:57:04,VALID,1008.98,VALID,0,VALID,95.3982,VALID,0.105969,VALID,23.8091,VALID,46,VALID,0.378516,
2008-11-28, 00:58:04,VALID,1008.97,VALID,0,VALID,95.3905,VALID,0,VALID,23.7896,VALID,46,VALID,0.352344,
2008-11-28, 00:59:04,VALID,1008.96,VALID,0,VALID,95.3982,VALID,0.105969,VALID,23.7701,VALID,30,VALID,0.573828,
2008-11-28, 01:00:04,VALID,1008.93,VALID,0,VALID,95.4134,VALID,0,VALID,23.7701,VALID,8,VALID,0.353516,
2008-11-28, 01:01:04,VALID,1008.94,VALID,0,VALID,95.4287,VALID,0.105969,VALID,23.7701,VALID,6,VALID,0.0175781,
2008-11-28, 01:02:04,VALID,1008.91,VALID,0,VALID,95.4516,VALID,0,VALID,23.7312,VALID,6,VALID,0.21875,
2008-11-28, 01:03:04,VALID,1008.91,VALID,0,VALID,95.4363,VALID,0.105969,VALID,23.7507,VALID,358,VALID,0.2625,
2008-11-28, 01:04:04,VALID,1008.91,VALID,0,VALID,95.4592,VALID,0.105969,VALID,23.7312,VALID,358,VALID,0.00078125,
2008-11-28, 01:05:04,VALID,1008.89,VALID,0,VALID,95.4668,VALID,0,VALID,23.7507,VALID,358,VALID,0,
2008-11-28, 01:06:04,VALID,1008.87,VALID,0,VALID,95.4744,VALID,0.105969,VALID,23.733,VALID,358,VALID,0,
2008-11-28, 01:07:04,VALID,1008.87,VALID,0,VALID,95.4897,VALID,0,VALID,23.733,VALID,358,VALID,0.141406,
2008-11-28, 01:08:04,VALID,1008.83,VALID,0,VALID,95.4973,VALID,0.105969,VALID,23.6922,VALID,51,VALID,0.2125,
2008-11-28, 01:09:04,VALID,1008.85,VALID,0,VALID,95.4973,VALID,0.105969,VALID,23.6922,VALID,64,VALID,0.441406,
2008-11-28, 01:10:04,VALID,1008.82,VALID,0,VALID,95.5126,VALID,0.105969,VALID,23.6727,VALID,64,VALID,0.236328,
2008-11-28, 01:11:04,VALID,1008.86,VALID,0,VALID,95.5126,VALID,0.105969,VALID,23.6922,VALID,64,VALID,0.290625,
2008-11-28, 01:12:04,VALID,1008.85,VALID,0,VALID,95.5431,VALID,0,VALID,23.6922,VALID,64,VALID,0.258594,
2008-11-28, 01:13:04,VALID,1008.84,VALID,0,VALID,95.5507,VALID,0.105969,VALID,23.6922,VALID,64,VALID,0.172656,
2008-11-28, 01:14:04,VALID,1008.81,VALID,0,VALID,95.5431,VALID,0,VALID,23.6922,VALID,64,VALID,0,
2008-11-28, 01:15:04,VALID,1008.79,VALID,0,VALID,95.5583,VALID,0,VALID,23.6922,VALID,61,VALID,0.64375,
2008-11-28, 01:16:04,VALID,1008.77,VALID,0,VALID,95.5583,VALID,0,VALID,23.6727,VALID,40,VALID,0.437109,
2008-11-28, 01:17:04,VALID,1008.78,VALID,0,VALID,95.5812,VALID,0,VALID,23.6727,VALID,40,VALID,0.164063,
2008-11-28, 01:18:04,VALID,1008.77,VALID,0,VALID,95.5736,VALID,0,VALID,23.6745,VALID,40,VALID,0.192969,
2008-11-28, 01:19:04,VALID,1008.78,VALID,0,VALID,95.5812,VALID,0.105969,VALID,23.6532,VALID,40,VALID,0.0945313,
2008-11-28, 01:20:04,VALID,1008.78,VALID,0,VALID,95.5812,VALID,0.105969,VALID,23.6532,VALID,40,VALID,0.184375,
2008-11-28, 01:21:04,VALID,1008.77,VALID,0,VALID,95.5812,VALID,0.105969,VALID,23.6532,VALID,27,VALID,0.444531,
2008-11-28, 01:22:04,VALID,1008.73,VALID,0,VALID,95.6041,VALID,0.105969,VALID,23.6532,VALID,27,VALID,0.270703,
2008-11-28, 01:23:04,VALID,1008.74,VALID,0,VALID,95.6193,VALID,0,VALID,23.6532,VALID,58,VALID,0.575391,
2008-11-28, 01:24:04,VALID,1008.68,VALID,0,VALID,95.6193,VALID,0,VALID,23.6338,VALID,58,VALID,0.543359,
2008-11-28, 01:25:04,VALID,1008.71,VALID,0,VALID,95.6193,VALID,0.105969,VALID,23.6338,VALID,58,VALID,0.538672,
2008-11-28, 01:26:04,VALID,1008.68,VALID,0,VALID,95.6422,VALID,0.105969,VALID,23.6532,VALID,65,VALID,0.598437,
2008-11-28, 01:27:04,VALID,1008.61,VALID,0,VALID,95.6269,VALID,0.105969,VALID,23.6532,VALID,59,VALID,0.73125,
2008-11-28, 01:28:04,VALID,1008.62,VALID,0,VALID,95.6422,VALID,0,VALID,23.6338,VALID,50,VALID,0.877344,
2008-11-28, 01:29:04,VALID,1008.56,VALID,0,VALID,95.6574,VALID,0.105969,VALID,23.6532,VALID,43,VALID,0.198437,
2008-11-28, 01:30:04,VALID,1008.57,VALID,0,VALID,95.6651,VALID,0,VALID,23.6338,VALID,47,VALID,0.396875,
2008-11-28, 01:31:04,VALID,1008.58,VALID,0,VALID,95.6422,VALID,0,VALID,23.6356,VALID,48,VALID,0.0742188,
2008-11-28, 01:32:04,VALID,1008.53,VALID,0,VALID,95.6651,VALID,0.105969,VALID,23.6143,VALID,48,VALID,0.411328,
2008-11-28, 01:33:04,VALID,1008.54,VALID,0,VALID,95.6727,VALID,0,VALID,23.6356,VALID,49,VALID,0.282031,
2008-11-28, 01:34:04,VALID,1008.51,VALID,0,VALID,95.6651,VALID,0,VALID,23.6338,VALID,48,VALID,0.151172,
2008-11-28, 01:35:04,VALID,1008.53,VALID,0,VALID,95.7108,VALID,0,VALID,23.6356,VALID,48,VALID,0,
2008-11-28, 01:36:04,VALID,1008.53,VALID,0,VALID,95.688,VALID,0.105969,VALID,23.6143,VALID,48,VALID,0.219922,
2008-11-28, 01:37:04,VALID,1008.54,VALID,0,VALID,95.7185,VALID,0,VALID,23.6143,VALID,47,VALID,0.330469,
2008-11-28, 01:38:04,VALID,1008.49,VALID,0,VALID,95.7108,VALID,0.105969,VALID,23.5948,VALID,47,VALID,0.398047,
2008-11-28, 01:39:04,VALID,1008.49,VALID,0,VALID,95.7185,VALID,0,VALID,23.6161,VALID,47,VALID,0.504297,
2008-11-28, 01:40:04,VALID,1008.45,VALID,0,VALID,95.7185,VALID,0,VALID,23.6161,VALID,46,VALID,0.379297,
2008-11-28, 01:41:04,VALID,1008.44,VALID,0,VALID,95.7185,VALID,0,VALID,23.6568,VALID,46,VALID,0.261328,
2008-11-28, 01:42:04,VALID,1008.44,VALID,0,VALID,95.7108,VALID,0,VALID,23.5966,VALID,46,VALID,0.216797,
2008-11-28, 01:43:04,VALID,1008.42,VALID,0,VALID,95.7185,VALID,0,VALID,23.6179,VALID,46,VALID,0.385547,
2008-11-28, 01:44:04,VALID,1008.39,VALID,0,VALID,95.7261,VALID,0,VALID,23.6179,VALID,46,VALID,0,
2008-11-28, 01:45:04,VALID,1008.39,VALID,0,VALID,95.7566,VALID,0,VALID,23.6179,VALID,46,VALID,0.139844,
2008-11-28, 01:46:04,VALID,1008.41,VALID,0,VALID,95.7413,VALID,0,VALID,23.6179,VALID,46,VALID,0.1625,
2008-11-28, 01:47:04,VALID,1008.41,VALID,0,VALID,95.7566,VALID,0,VALID,23.6373,VALID,46,VALID,0.214453,
2008-11-28, 01:48:04,VALID,1008.43,VALID,0,VALID,95.749,VALID,0,VALID,23.6179,VALID,46,VALID,0.235156,
2008-11-28, 01:49:04,VALID,1008.43,VALID,0,VALID,95.7642,VALID,0,VALID,23.6179,VALID,46,VALID,0.269141,
2008-11-28, 01:50:04,VALID,1008.43,VALID,0,VALID,95.7718,VALID,0,VALID,23.5966,VALID,46,VALID,0.264844,
2008-11-28, 01:51:04,VALID,1008.47,VALID,0,VALID,95.7642,VALID,0,VALID,23.6161,VALID,46,VALID,0.230078,
2008-11-28, 01:52:04,VALID,1008.42,VALID,0,VALID,95.7642,VALID,0,VALID,23.6161,VALID,46,VALID,0.00546875,
2008-11-28, 01:53:04,VALID,1008.41,VALID,0,VALID,95.7718,VALID,0,VALID,23.6161,VALID,46,VALID,0.0910156,
2008-11-28, 01:54:04,VALID,1008.42,VALID,0,VALID,95.7871,VALID,0,VALID,23.5966,VALID,46,VALID,0.108594,
2008-11-28, 01:55:04,VALID,1008.41,VALID,0,VALID,95.7947,VALID,0,VALID,23.6179,VALID,46,VALID,0,
2008-11-28, 01:56:04,VALID,1008.42,VALID,0,VALID,95.7718,VALID,0,VALID,23.6179,VALID,46,VALID,0.0015625,
2008-11-28, 01:57:04,VALID,1008.39,VALID,0,VALID,95.7718,VALID,0,VALID,23.6179,VALID,46,VALID,0.183984,
2008-11-28, 01:58:04,VALID,1008.39,VALID,0,VALID,95.7947,VALID,0,VALID,23.6568,VALID,83,VALID,0.552344,
2008-11-28, 01:59:04,VALID,1008.4,VALID,0,VALID,95.7795,VALID,0,VALID,23.6745,VALID,99,VALID,0.296484,
2008-11-28, 02:00:04,VALID,1008.41,VALID,0,VALID,95.8023,VALID,0,VALID,23.6958,VALID,99,VALID,0.715234,
2008-11-28, 02:01:04,VALID,1008.41,VALID,0,VALID,95.7871,VALID,0,VALID,23.694,VALID,115,VALID,0.53125,
2008-11-28, 02:02:04,VALID,1008.42,VALID,0,VALID,95.8176,VALID,0,VALID,23.6745,VALID,128,VALID,0.661719,
2008-11-28, 02:03:04,VALID,1008.43,VALID,0,VALID,95.81,VALID,0,VALID,23.694,VALID,114,VALID,1.00195,
2008-11-28, 02:04:04,VALID,1008.43,VALID,0,VALID,95.81,VALID,0,VALID,23.7153,VALID,116,VALID,0.491016,
2008-11-28, 02:05:04,VALID,1008.4,VALID,0,VALID,95.8023,VALID,0,VALID,23.6745,VALID,116,VALID,0.289844,
2008-11-28, 02:06:04,VALID,1008.42,VALID,0,VALID,95.8023,VALID,0,VALID,23.6745,VALID,126,VALID,0.461719,
2008-11-28, 02:07:04,VALID,1008.4,VALID,0,VALID,95.8176,VALID,0,VALID,23.6763,VALID,132,VALID,0.467578,
2008-11-28, 02:08:04,VALID,1008.4,VALID,0,VALID,95.81,VALID,0,VALID,23.655,VALID,136,VALID,0.363672,
2008-11-28, 02:09:04,VALID,1008.38,VALID,0,VALID,95.8176,VALID,0,VALID,23.6356,VALID,124,VALID,0.281641,
2008-11-28, 02:10:04,VALID,1008.4,VALID,0,VALID,95.8252,VALID,0,VALID,23.6763,VALID,123,VALID,0.315625,
2008-11-28, 02:11:04,VALID,1008.41,VALID,0,VALID,95.8252,VALID,0,VALID,23.6356,VALID,103,VALID,0.510938,
2008-11-28, 02:12:04,VALID,1008.38,VALID,0,VALID,95.8328,VALID,0,VALID,23.655,VALID,98,VALID,0.467578,
2008-11-28, 02:13:04,VALID,1008.38,VALID,0,VALID,95.8405,VALID,0,VALID,23.6356,VALID,83,VALID,0.494141,
2008-11-28, 02:14:04,VALID,1008.37,VALID,0,VALID,95.8176,VALID,0,VALID,23.6356,VALID,76,VALID,0.773828,
2008-11-28, 02:15:04,VALID,1008.34,VALID,0,VALID,95.8405,VALID,0,VALID,23.6373,VALID,87,VALID,0.851563,
2008-11-28, 02:16:04,VALID,1008.33,VALID,0,VALID,95.8405,VALID,0,VALID,23.6356,VALID,87,VALID,0.344922,
2008-11-28, 02:17:04,VALID,1008.32,VALID,0,VALID,95.8328,VALID,0,VALID,23.6373,VALID,87,VALID,0.374609,
2008-11-28, 02:18:04,VALID,1008.3,VALID,0,VALID,95.8405,VALID,0,VALID,23.6161,VALID,96,VALID,0.385547,
2008-11-28, 02:19:04,VALID,1008.3,VALID,0,VALID,95.8481,VALID,0,VALID,23.6161,VALID,107,VALID,0.631641,
2008-11-28, 02:20:04,VALID,1008.28,VALID,0,VALID,95.8405,VALID,0,VALID,23.5966,VALID,104,VALID,0.823047,
2008-11-28, 02:21:04,VALID,1008.27,VALID,0,VALID,95.8405,VALID,0,VALID,23.5966,VALID,96,VALID,0.677344,
2008-11-28, 02:22:04,VALID,1008.26,VALID,0,VALID,95.8481,VALID,0,VALID,23.5966,VALID,97,VALID,0.716016,
2008-11-28, 02:23:04,VALID,1008.25,VALID,0,VALID,95.871,VALID,0,VALID,23.5966,VALID,94,VALID,0.652734,
2008-11-28, 02:24:04,VALID,1008.23,VALID,0,VALID,95.8481,VALID,0.105969,VALID,23.6143,VALID,105,VALID,0.836719,
2008-11-28, 02:25:04,VALID,1008.23,VALID,0,VALID,95.8786,VALID,0.105969,VALID,23.6143,VALID,92,VALID,0.352344,
2008-11-28, 02:26:04,VALID,1008.27,VALID,0,VALID,95.8557,VALID,0.105969,VALID,23.5753,VALID,89,VALID,0.637891,
2008-11-28, 02:27:04,VALID,1008.26,VALID,0,VALID,95.8481,VALID,0.105969,VALID,23.5753,VALID,87,VALID,0.457812,
2008-11-28, 02:28:04,VALID,1008.25,VALID,0,VALID,95.871,VALID,0,VALID,23.5753,VALID,82,VALID,0.803516,
2008-11-28, 02:29:04,VALID,1008.28,VALID,0,VALID,95.871,VALID,0.105969,VALID,23.5753,VALID,79,VALID,0.625391,
2008-11-28, 02:30:04,VALID,1008.3,VALID,0,VALID,95.8786,VALID,0.105969,VALID,23.5753,VALID,77,VALID,0.564844,
2008-11-28, 02:31:04,VALID,1008.3,VALID,0,VALID,95.8786,VALID,0.105969,VALID,23.5558,VALID,75,VALID,0.385156,
2008-11-28, 02:32:04,VALID,1008.31,VALID,0,VALID,95.8786,VALID,0,VALID,23.5558,VALID,74,VALID,0.503516,
2008-11-28, 02:33:04,VALID,1008.3,VALID,0,VALID,95.871,VALID,0.105969,VALID,23.5558,VALID,74,VALID,0.305469,
2008-11-28, 02:34:04,VALID,1008.29,VALID,0,VALID,95.8862,VALID,0.105969,VALID,23.5363,VALID,72,VALID,0.427344,
2008-11-28, 02:35:04,VALID,1008.28,VALID,0,VALID,95.8862,VALID,0.105969,VALID,23.5363,VALID,63,VALID,0.449219,
2008-11-28, 02:36:04,VALID,1008.28,VALID,0,VALID,95.8786,VALID,0,VALID,23.5169,VALID,64,VALID,0.573438,
2008-11-28, 02:37:04,VALID,1008.28,VALID,0,VALID,95.8862,VALID,0.105969,VALID,23.5363,VALID,64,VALID,0.225781,
2008-11-28, 02:38:04,VALID,1008.28,VALID,0,VALID,95.8939,VALID,0,VALID,23.5363,VALID,64,VALID,0.3875,
2008-11-28, 02:39:04,VALID,1008.31,VALID,0,VALID,95.8862,VALID,0,VALID,23.5381,VALID,64,VALID,0.513281,
2008-11-28, 02:40:04,VALID,1008.32,VALID,0,VALID,95.8862,VALID,0,VALID,23.5381,VALID,64,VALID,0.261719,
2008-11-28, 02:41:04,VALID,1008.28,VALID,0,VALID,95.8939,VALID,0,VALID,23.5381,VALID,70,VALID,0.501953,
2008-11-28, 02:42:04,VALID,1008.3,VALID,0,VALID,95.8939,VALID,0,VALID,23.5186,VALID,74,VALID,0.174219,
2008-11-28, 02:43:04,VALID,1008.27,VALID,0,VALID,95.9015,VALID,0,VALID,23.5381,VALID,74,VALID,0,
2008-11-28, 02:44:04,VALID,1008.24,VALID,0,VALID,95.9091,VALID,0,VALID,23.5381,VALID,74,VALID,0,
2008-11-28, 02:45:04,VALID,1008.27,VALID,0,VALID,95.9015,VALID,0.105969,VALID,23.5381,VALID,74,VALID,0.3875,
2008-11-28, 02:46:04,VALID,1008.24,VALID,0,VALID,95.8939,VALID,0,VALID,23.5381,VALID,96,VALID,0.538672,
2008-11-28, 02:47:04,VALID,1008.24,VALID,0,VALID,95.9167,VALID,0,VALID,23.5186,VALID,107,VALID,0.597266,
2008-11-28, 02:48:04,VALID,1008.24,VALID,0,VALID,95.9015,VALID,0,VALID,23.4992,VALID,107,VALID,0.436328,
2008-11-28, 02:49:04,VALID,1008.29,VALID,0,VALID,95.9091,VALID,0,VALID,23.5576,VALID,108,VALID,0.402344,
2008-11-28, 02:50:04,VALID,1008.25,VALID,0,VALID,95.9244,VALID,0,VALID,23.5594,VALID,131,VALID,0.667578,
2008-11-28, 02:51:04,VALID,1008.27,VALID,0,VALID,95.932,VALID,0,VALID,23.5381,VALID,93,VALID,0.624219,
2008-11-28, 02:52:04,VALID,1008.28,VALID,0,VALID,95.9167,VALID,0,VALID,23.5381,VALID,93,VALID,0.613672,
2008-11-28, 02:53:04,VALID,1008.28,VALID,0,VALID,95.9091,VALID,0,VALID,23.5186,VALID,102,VALID,0.324219,
2008-11-28, 02:54:04,VALID,1008.28,VALID,0,VALID,95.9091,VALID,0,VALID,23.5381,VALID,84,VALID,0.636328,
2008-11-28, 02:55:04,VALID,1008.29,VALID,0,VALID,95.9167,VALID,0,VALID,23.5186,VALID,104,VALID,0.769531,
2008-11-28, 02:56:04,VALID,1008.32,VALID,0,VALID,95.9167,VALID,0,VALID,23.5186,VALID,98,VALID,0.488281,
2008-11-28, 02:57:04,VALID,1008.33,VALID,0,VALID,95.9167,VALID,0,VALID,23.5186,VALID,94,VALID,0.272656,
2008-11-28, 02:58:04,VALID,1008.36,VALID,0,VALID,95.932,VALID,0,VALID,23.5186,VALID,69,VALID,0.43125,
2008-11-28, 02:59:04,VALID,1008.37,VALID,0,VALID,95.9244,VALID,0,VALID,23.4992,VALID,63,VALID,0.626562,
2008-11-28, 03:00:04,VALID,1008.4,VALID,0,VALID,95.9244,VALID,0,VALID,23.4992,VALID,57,VALID,0.560938,
2008-11-28, 03:01:04,VALID,1008.41,VALID,0,VALID,95.9396,VALID,0,VALID,23.4797,VALID,41,VALID,0.189844,
2008-11-28, 03:02:04,VALID,1008.42,VALID,0,VALID,95.9396,VALID,0,VALID,23.4797,VALID,26,VALID,0.446875,
2008-11-28, 03:03:04,VALID,1008.43,VALID,0,VALID,95.9244,VALID,0,VALID,23.4797,VALID,26,VALID,0.597266,
2008-11-28, 03:04:04,VALID,1008.41,VALID,0,VALID,95.9244,VALID,0,VALID,23.4602,VALID,47,VALID,0.396094,
2008-11-28, 03:05:04,VALID,1008.42,VALID,0,VALID,95.932,VALID,0,VALID,23.4797,VALID,19,VALID,0.499609,
2008-11-28, 03:06:04,VALID,1008.41,VALID,0,VALID,95.9472,VALID,0,VALID,23.4602,VALID,18,VALID,0.00195313,
2008-11-28, 03:07:04,VALID,1008.42,VALID,0,VALID,95.9472,VALID,0,VALID,23.4602,VALID,18,VALID,0.0902344,
2008-11-28, 03:08:04,VALID,1008.4,VALID,0,VALID,95.9625,VALID,0,VALID,23.4407,VALID,18,VALID,0,
2008-11-28, 03:09:04,VALID,1008.39,VALID,0,VALID,95.9472,VALID,0,VALID,23.4407,VALID,18,VALID,0,
2008-11-28, 03:10:04,VALID,1008.38,VALID,0,VALID,95.932,VALID,0,VALID,23.4602,VALID,18,VALID,0,
2008-11-28, 03:11:04,VALID,1008.39,VALID,0,VALID,95.9549,VALID,0,VALID,23.4407,VALID,18,VALID,0.00273437,
2008-11-28, 03:12:04,VALID,1008.4,VALID,0,VALID,95.9396,VALID,0,VALID,23.4212,VALID,18,VALID,0.0375,
2008-11-28, 03:13:04,VALID,1008.39,VALID,0,VALID,95.9549,VALID,0,VALID,23.462,VALID,18,VALID,0.208594,
2008-11-28, 03:14:04,VALID,1008.36,VALID,0,VALID,95.9472,VALID,0,VALID,23.4602,VALID,18,VALID,0.289844,
2008-11-28, 03:15:04,VALID,1008.37,VALID,0,VALID,95.9701,VALID,0,VALID,23.4407,VALID,18,VALID,0.221875,
2008-11-28, 03:16:04,VALID,1008.35,VALID,0,VALID,95.9549,VALID,0,VALID,23.4407,VALID,18,VALID,0.212109,
2008-11-28, 03:17:04,VALID,1008.34,VALID,0,VALID,95.9701,VALID,0,VALID,23.4407,VALID,18,VALID,0.346875,
2008-11-28, 03:18:04,VALID,1008.35,VALID,0,VALID,95.9549,VALID,0,VALID,23.4407,VALID,36,VALID,0.325,
2008-11-28, 03:19:04,VALID,1008.31,VALID,0,VALID,95.9777,VALID,0,VALID,23.4602,VALID,36,VALID,0.0527344,
2008-11-28, 03:20:04,VALID,1008.32,VALID,0,VALID,95.9701,VALID,0,VALID,23.4194,VALID,36,VALID,0,
2008-11-28, 03:21:04,VALID,1008.33,VALID,0,VALID,95.9701,VALID,0,VALID,23.4212,VALID,36,VALID,0.341797,
2008-11-28, 03:22:04,VALID,1008.3,VALID,0,VALID,95.9625,VALID,0,VALID,23.4212,VALID,125,VALID,0.417969,
2008-11-28, 03:23:04,VALID,1008.3,VALID,0,VALID,95.9777,VALID,0,VALID,23.3823,VALID,126,VALID,0.426172,
2008-11-28, 03:24:04,VALID,1008.28,VALID,0,VALID,95.9854,VALID,0,VALID,23.3628,VALID,126,VALID,0.41875,
2008-11-28, 03:25:04,VALID,1008.31,VALID,0,VALID,95.9854,VALID,0,VALID,23.3433,VALID,126,VALID,0.395703,
2008-11-28, 03:26:04,VALID,1008.32,VALID,0,VALID,95.993,VALID,0,VALID,23.3238,VALID,126,VALID,0.410156,
2008-11-28, 03:27:04,VALID,1008.31,VALID,0,VALID,96.0082,VALID,0,VALID,23.3238,VALID,126,VALID,0.210156,
2008-11-28, 03:28:04,VALID,1008.35,VALID,0,VALID,95.9854,VALID,0,VALID,23.3043,VALID,126,VALID,0,
2008-11-28, 03:29:04,VALID,1008.36,VALID,0,VALID,95.9854,VALID,0,VALID,23.3043,VALID,126,VALID,0,
2008-11-28, 03:30:04,VALID,1008.38,VALID,0,VALID,95.9854,VALID,0,VALID,23.2848,VALID,126,VALID,0,
2008-11-28, 03:31:04,VALID,1008.34,VALID,0,VALID,96.0082,VALID,0,VALID,23.2848,VALID,126,VALID,0,
2008-11-28, 03:32:04,VALID,1008.35,VALID,0,VALID,96.0235,VALID,0,VALID,23.3043,VALID,126,VALID,0,
2008-11-28, 03:33:04,VALID,1008.34,VALID,0,VALID,95.9854,VALID,0,VALID,23.3043,VALID,126,VALID,0,
2008-11-28, 03:34:04,VALID,1008.32,VALID,0,VALID,95.993,VALID,0,VALID,23.3238,VALID,126,VALID,0,
2008-11-28, 03:35:04,VALID,1008.32,VALID,0,VALID,95.993,VALID,0,VALID,23.3433,VALID,126,VALID,0,
2008-11-28, 03:36:04,VALID,1008.31,VALID,0,VALID,96.0082,VALID,0,VALID,23.3238,VALID,126,VALID,0,
2008-11-28, 03:37:04,VALID,1008.3,VALID,0,VALID,95.993,VALID,0,VALID,23.3433,VALID,126,VALID,0,
2008-11-28, 03:38:04,VALID,1008.3,VALID,0,VALID,95.993,VALID,0,VALID,23.3238,VALID,126,VALID,0,
2008-11-28, 03:39:04,VALID,1008.27,VALID,0,VALID,96.0235,VALID,0,VALID,23.3238,VALID,126,VALID,0,
2008-11-28, 03:40:04,VALID,1008.3,VALID,0,VALID,96.0082,VALID,0,VALID,23.3433,VALID,126,VALID,0.233984,
2008-11-28, 03:41:04,VALID,1008.28,VALID,0,VALID,96.0235,VALID,0,VALID,23.3238,VALID,126,VALID,0.273047,
2008-11-28, 03:42:04,VALID,1008.28,VALID,0,VALID,96.0006,VALID,0,VALID,23.3238,VALID,126,VALID,0.326562,
2008-11-28, 03:43:04,VALID,1008.26,VALID,0,VALID,96.0006,VALID,0,VALID,23.3238,VALID,126,VALID,0.247266,